Weather History for Socorro, NM

Change the Weather History Date:

Wednesday, October 10, 2012

  Actual Average Record
Temperature  
Mean Temperature 67 °F -  
Max Temperature 83 °F 77 °F 83 °F (2012)
Min Temperature 51 °F 41 °F 41 °F (2011)
Cooling Degree Days 2    
Growing Degree Days 17 (Base 50)    
Moisture  
Dew Point 32 °F    
Average Humidity 30    
Maximum Humidity 51    
Minimum Humidity 15    
Precipitation  
Precipitation 0.00 in - - ()
Sea Level Pressure  
Sea Level Pressure 30.12 in    
Wind  
Wind Speed 7 mph (SSW)    
Max Wind Speed 18 mph    
Max Gust Speed 24 mph    
Visibility 10 miles    
Events      
Averages and records for this station are not official NWS values.
T = Trace of Precipitation, MM = Missing Value Source: NWS Daily Summary

Daily Weather History Graph

Daily Weather History Graph

Search for Another Location

Airport:

Trip Planner

Search our weather history database for the weather conditions in past years. The results will help you decide how hot, cold, wet, or windy it might be!

Date:

Astronomy

Oct. 10, 2012 Rise Set
Actual Time 7:09 AM MDT 6:39 PM MDT
Civil Twilight 6:44 AM MDT 7:04 PM MDT
Nautical Twilight 6:15 AM MDT 7:33 PM MDT
Astronomical Twilight 5:46 AM MDT 8:02 PM MDT
Moon 2:01 AM MDT (10/10) 3:31 PM MDT (10/10)
Length of Visible Light 12h 20m
Length of Day
11h 29m
Waning Crescent, 26% of the Moon is Illuminated
Oct 10
Waning Crescent
Oct 15
New
Oct 21
First Quarter
Oct 29
Full
Nov 6
Last Quarter

Hourly Weather History & Observations

Time (MDT) Temp. Dew Point Humidity Pressure Visibility Wind Dir Wind Speed Gust Speed Precip Events Conditions
12:15 AM 58.6 °F 28.0 °F 31% 30.10 in 10.0 mi SW 6.9 mph - N/A   Clear
12:35 AM 58.3 °F 28.0 °F 32% 30.10 in 10.0 mi SW 6.9 mph - N/A   Clear
12:55 AM 58.1 °F 28.2 °F 32% 30.10 in 10.0 mi WSW 9.2 mph - N/A   Clear
1:15 AM 58.1 °F 28.4 °F 32% 30.10 in 10.0 mi WSW 6.9 mph - N/A   Clear
1:35 AM 57.6 °F 28.4 °F 33% 30.11 in 10.0 mi West 4.6 mph - N/A   Clear
1:55 AM 57.4 °F 29.1 °F 34% 30.12 in 10.0 mi North 3.5 mph - N/A   Clear
2:15 AM 55.8 °F 29.3 °F 36% 30.12 in 10.0 mi ENE 3.5 mph - N/A   Clear
2:35 AM 53.8 °F 29.7 °F 40% 30.13 in 10.0 mi West 5.8 mph - N/A   Clear
2:55 AM 55.0 °F 28.9 °F 37% 30.13 in 10.0 mi WSW 4.6 mph - N/A   Clear
3:15 AM 55.8 °F 29.1 °F 36% 30.11 in 10.0 mi WSW 6.9 mph - N/A   Clear
3:35 AM 56.3 °F 28.9 °F 35% 30.11 in 10.0 mi WSW 9.2 mph - N/A   Clear
3:55 AM 55.2 °F 28.9 °F 37% 30.13 in 10.0 mi NW 4.6 mph - N/A   Clear
4:15 AM 52.3 °F 30.2 °F 43% 30.13 in 10.0 mi NNW 9.2 mph - N/A   Clear
4:35 AM 53.6 °F 29.5 °F 40% 30.14 in 10.0 mi NNW 8.1 mph - N/A   Clear
4:55 AM 55.6 °F 28.9 °F 36% 30.14 in 10.0 mi North 5.8 mph - N/A   Clear
5:15 AM 54.9 °F 29.1 °F 37% 30.14 in 10.0 mi NNW 3.5 mph - N/A   Clear
5:35 AM 53.4 °F 30.0 °F 41% 30.15 in 10.0 mi Calm Calm - N/A   Clear
5:55 AM 52.2 °F 31.1 °F 45% 30.16 in 10.0 mi NNW 5.8 mph - N/A   Clear
6:15 AM 53.6 °F 31.8 °F 44% 30.17 in 10.0 mi North 6.9 mph - N/A   Clear
6:35 AM 52.3 °F 31.8 °F 46% 30.17 in 10.0 mi NNW 6.9 mph - N/A   Clear
6:55 AM 53.4 °F 32.5 °F 45% 30.17 in 10.0 mi North 9.2 mph - N/A   Clear
7:15 AM 51.8 °F 33.4 °F 50% 30.18 in 10.0 mi NNW 5.8 mph - N/A   Clear
7:35 AM 51.8 °F 34.2 °F 51% 30.19 in 10.0 mi NNW 6.9 mph - N/A   Clear
8:15 AM 54.9 °F 35.1 °F 47% 30.20 in 10.0 mi North 8.1 mph - N/A   Clear
8:35 AM 56.3 °F 34.7 °F 44% 30.21 in 10.0 mi North 9.2 mph - N/A   Clear
8:55 AM 57.6 °F 34.3 °F 42% 30.21 in 10.0 mi North 9.2 mph - N/A   Clear
9:15 AM 58.8 °F 35.6 °F 42% 30.22 in 10.0 mi North 10.4 mph - N/A   Clear
9:35 AM 60.3 °F 35.8 °F 40% 30.22 in 10.0 mi North 10.4 mph - N/A   Clear
9:55 AM 61.9 °F 35.6 °F 38% 30.22 in 10.0 mi North 9.2 mph - N/A   Clear
10:15 AM 63.3 °F 34.9 °F 35% 30.22 in 10.0 mi North 10.4 mph - N/A   Clear
10:35 AM 65.5 °F 35.1 °F 32% 30.22 in 10.0 mi North 10.4 mph - N/A   Clear
10:55 AM 67.5 °F 34.9 °F 30% 30.21 in 10.0 mi North 8.1 mph - N/A   Clear
11:15 AM 68.2 °F 34.9 °F 29% 30.21 in 10.0 mi NNW 6.9 mph - N/A   Clear
11:35 AM 70.0 °F 35.6 °F 28% 30.20 in 10.0 mi North 8.1 mph - N/A   Clear
11:55 AM 71.2 °F 35.1 °F 27% 30.20 in 10.0 mi NNE 6.9 mph - N/A   Clear
12:15 PM 72.1 °F 35.2 °F 26% 30.19 in 10.0 mi Calm Calm - N/A   Clear
12:35 PM 73.4 °F 34.3 °F 24% 30.19 in 10.0 mi ENE 3.5 mph - N/A   Clear
12:55 PM 74.3 °F 34.7 °F 24% 30.17 in 10.0 mi NE 4.6 mph - N/A   Clear
1:15 PM 74.7 °F 34.0 °F 23% 30.15 in 10.0 mi SSE 3.5 mph - N/A   Clear
1:35 PM 76.5 °F 34.3 °F 22% 30.13 in 10.0 mi SE 3.5 mph - N/A   Clear
1:55 PM 77.7 °F 34.0 °F 20% 30.12 in 10.0 mi SE 8.1 mph - N/A   Clear
2:15 PM 79.0 °F 33.3 °F 19% 30.10 in 10.0 mi SE 5.8 mph - N/A   Clear
2:35 PM 80.4 °F 32.4 °F 18% 30.09 in 10.0 mi SE 8.1 mph - N/A   Clear
2:55 PM 81.9 °F 31.8 °F 16% 30.08 in 10.0 mi South 12.7 mph 16.1 mph N/A   Clear
3:15 PM 82.0 °F 32.0 °F 16% 30.07 in 10.0 mi SSE 13.8 mph 21.9 mph N/A   Clear
3:35 PM 82.9 °F 32.2 °F 16% 30.07 in 10.0 mi SE 12.7 mph 17.3 mph N/A   Clear
3:55 PM 83.3 °F 32.0 °F 16% 30.06 in 10.0 mi South 17.3 mph 24.2 mph N/A   Clear
4:15 PM 83.5 °F 31.8 °F 16% 30.05 in 10.0 mi South 12.7 mph 21.9 mph N/A   Clear
4:35 PM 83.5 °F 30.9 °F 15% 30.04 in 10.0 mi SSE 18.4 mph 23.0 mph N/A   Clear
4:55 PM 83.3 °F 31.1 °F 15% 30.04 in 10.0 mi South 16.1 mph - N/A   Clear
5:15 PM 82.8 °F 30.9 °F 15% 30.03 in 10.0 mi South 15.0 mph - N/A   Clear
5:35 PM 82.4 °F 30.7 °F 15% 30.03 in 10.0 mi South 13.8 mph 20.7 mph N/A   Clear
5:55 PM 81.5 °F 30.6 °F 16% 30.02 in 10.0 mi South 8.1 mph - N/A   Clear
6:15 PM 80.4 °F 29.8 °F 16% 30.03 in 10.0 mi South 13.8 mph - N/A   Clear
6:35 PM 78.6 °F 29.3 °F 16% 30.03 in 10.0 mi South 8.1 mph - N/A   Clear
6:55 PM 76.6 °F 29.1 °F 17% 30.04 in 10.0 mi South 6.9 mph - N/A   Clear
7:15 PM 72.5 °F 32.4 °F 23% 30.05 in 10.0 mi SE 10.4 mph - N/A   Clear
7:35 PM 71.6 °F 31.1 °F 22% 30.05 in 10.0 mi South 8.1 mph - N/A   Clear
7:55 PM 70.9 °F 30.6 °F 22% 30.06 in 10.0 mi South 8.1 mph - N/A   Clear
8:15 PM 69.8 °F 30.0 °F 23% 30.06 in 10.0 mi South 6.9 mph - N/A   Clear
8:35 PM 70.7 °F 29.8 °F 22% 30.08 in 10.0 mi South 6.9 mph - N/A   Clear
8:55 PM 66.2 °F 29.7 °F 25% 30.08 in 10.0 mi SW 4.6 mph - N/A   Clear
9:15 PM 65.1 °F 30.2 °F 27% 30.08 in 10.0 mi SW 5.8 mph - N/A   Clear
9:35 PM 64.2 °F 30.0 °F 28% 30.09 in 10.0 mi SSE 4.6 mph - N/A   Clear
9:55 PM 65.3 °F 30.2 °F 27% 30.09 in 10.0 mi ENE 4.6 mph - N/A   Clear
10:15 PM 63.3 °F 30.2 °F 29% 30.09 in 10.0 mi ESE 4.6 mph - N/A   Clear
10:35 PM 63.0 °F 30.2 °F 29% 30.09 in 10.0 mi Calm Calm - N/A   Clear
10:55 PM 61.5 °F 30.2 °F 31% 30.09 in 10.0 mi Calm Calm - N/A   Clear
11:15 PM 58.8 °F 29.5 °F 33% 30.09 in 10.0 mi SSE 5.8 mph - N/A   Clear
11:35 PM 59.4 °F 30.2 °F 33% 30.09 in 10.0 mi SSE 5.8 mph - N/A   Clear
11:55 PM 58.3 °F 30.2 °F 34% 30.09 in 10.0 mi SSW 5.8 mph - N/A   Clear